When you browse on this site, cookies collect data to enhance your experience and personalize the content and advertising you see.
Visit our Privacy Policy to learn more. By continuing to use the site, you agree to this use of cookies and data.
  • In Österreich
  • Länderverzeichnis
  • Für 7 Tage
  • Wassertemperatur
  • Wetterkarte
  • News
  • Widgets
  • user-avatar
    Anmelden

    Stündliche Wetter Rudnya

    Heute, 7 Juni, Sonntag

    Zeit Temperatur Niederschläge Wind Luftdruck Luftfeuchtigkeit
    00:00 +16°C° 0 mm 0 m/S 747 mmHg 91%
    01:00 +18°C° 0 mm 1 m/S 747 mmHg 91%
    02:00 +18°C° 0 mm 1 m/S 747 mmHg 92%
    03:00 +18°C° 0 mm 1 m/S 747 mmHg 93%
    04:00 +18°C° 0 mm 1 m/S 747 mmHg 93%
    05:00 +18°C° 0 mm 1 m/S 747 mmHg 94%
    06:00 +19°C° 0 mm 2 m/S 747 mmHg 91%
    07:00 +20°C° 0 mm 2 m/S 747 mmHg 89%
    08:00 +21°C° 0 mm 2 m/S 748 mmHg 86%
    09:00 +24°C° 0.3 mm 2 m/S 748 mmHg 80%
    10:00 +25°C° 0.3 mm 3 m/S 748 mmHg 74%
    11:00 +27°C° 0.3 mm 3 m/S 748 mmHg 67%
    12:00 +27°C° 0.1 mm 3 m/S 748 mmHg 65%
    13:00 +28°C° 0.1 mm 4 m/S 748 mmHg 62%
    14:00 +28°C° 0.1 mm 4 m/S 748 mmHg 59%
    15:00 +28°C° 0 mm 4 m/S 747 mmHg 59%
    16:00 +28°C° 0 mm 4 m/S 747 mmHg 60%
    17:00 +27°C° 0 mm 3 m/S 747 mmHg 60%
    18:00 +25°C° 0 mm 3 m/S 747 mmHg 67%
    19:00 +24°C° 0 mm 3 m/S 747 mmHg 74%
    20:00 +21°C° 0 mm 3 m/S 747 mmHg 81%
    21:00 +20°C° 0 mm 3 m/S 747 mmHg 85%
    22:00 +19°C° 0 mm 3 m/S 747 mmHg 89%
    23:00 +18°C° 0 mm 3 m/S 747 mmHg 93%

    Morgen, 8 Juni, Montag

    Zeit Temperatur Niederschläge Wind Luftdruck Luftfeuchtigkeit
    00:00 +18°C° 0 mm 3 m/S 747 mmHg 94%
    01:00 +17°C° 0 mm 3 m/S 747 mmHg 95%
    02:00 +17°C° 0 mm 3 m/S 747 mmHg 96%
    03:00 +17°C° 0 mm 3 m/S 747 mmHg 95%
    04:00 +17°C° 0 mm 3 m/S 747 mmHg 95%
    05:00 +17°C° 0 mm 3 m/S 747 mmHg 95%
    06:00 +19°C° 0 mm 3 m/S 747 mmHg 88%
    07:00 +21°C° 0 mm 3 m/S 747 mmHg 82%
    08:00 +24°C° 0 mm 3 m/S 748 mmHg 76%
    09:00 +25°C° 0 mm 4 m/S 748 mmHg 69%
    10:00 +27°C° 0 mm 4 m/S 748 mmHg 62%
    11:00 +28°C° 0 mm 4 m/S 748 mmHg 55%
    12:00 +29°C° 0 mm 4 m/S 748 mmHg 54%
    13:00 +29°C° 0 mm 4 m/S 747 mmHg 54%
    14:00 +29°C° 0 mm 4 m/S 747 mmHg 53%
    15:00 +29°C° 0 mm 4 m/S 747 mmHg 56%
    16:00 +28°C° 0 mm 4 m/S 746 mmHg 59%
    17:00 +28°C° 0 mm 4 m/S 746 mmHg 61%
    18:00 +26°C° 0 mm 3 m/S 746 mmHg 68%
    19:00 +24°C° 0 mm 3 m/S 746 mmHg 75%
    20:00 +22°C° 0 mm 3 m/S 746 mmHg 81%
    21:00 +21°C° 0 mm 3 m/S 746 mmHg 85%
    22:00 +20°C° 0 mm 2 m/S 747 mmHg 88%
    23:00 +19°C° 0 mm 2 m/S 747 mmHg 92%

    übermorgen, 9 Juni, Dienstag

    Zeit Temperatur Niederschläge Wind Luftdruck Luftfeuchtigkeit
    00:00 +19°C° 0 mm 2 m/S 747 mmHg 93%
    01:00 +19°C° 0 mm 3 m/S 747 mmHg 94%
    02:00 +18°C° 0 mm 3 m/S 747 mmHg 95%
    03:00 +18°C° 0 mm 3 m/S 747 mmHg 94%
    04:00 +18°C° 0 mm 3 m/S 747 mmHg 93%
    05:00 +18°C° 0 mm 3 m/S 747 mmHg 93%
    06:00 +20°C° 0 mm 3 m/S 747 mmHg 87%
    07:00 +21°C° 0 mm 3 m/S 747 mmHg 81%
    08:00 +24°C° 0 mm 3 m/S 747 mmHg 75%
    09:00 +25°C° 0 mm 4 m/S 747 mmHg 68%
    10:00 +27°C° 0 mm 5 m/S 747 mmHg 62%
    11:00 +29°C° 0 mm 5 m/S 747 mmHg 55%
    12:00 +29°C° 0 mm 5 m/S 747 mmHg 54%
    13:00 +29°C° 0 mm 5 m/S 747 mmHg 53%
    14:00 +30°C° 0 mm 5 m/S 747 mmHg 52%
    15:00 +30°C° 0 mm 4 m/S 747 mmHg 55%
    16:00 +29°C° 0 mm 4 m/S 747 mmHg 58%
    17:00 +29°C° 0 mm 4 m/S 746 mmHg 62%
    18:00 +27°C° 0 mm 4 m/S 746 mmHg 68%
    19:00 +26°C° 0 mm 3 m/S 746 mmHg 74%
    20:00 +24°C° 0 mm 3 m/S 746 mmHg 80%
    21:00 +22°C° 0 mm 3 m/S 747 mmHg 84%
    22:00 +22°C° 0 mm 3 m/S 747 mmHg 87%
    23:00 +21°C° 0 mm 3 m/S 747 mmHg 91%

    10 Juni, Mittwoch

    Zeit Temperatur Niederschläge Wind Luftdruck Luftfeuchtigkeit
    00:00 +20°C° 0 mm 3 m/S 747 mmHg 92%
    01:00 +20°C° 0 mm 3 m/S 747 mmHg 93%
    02:00 +20°C° 0 mm 3 m/S 747 mmHg 94%
    03:00 +19°C° 0 mm 3 m/S 747 mmHg 93%
    04:00 +19°C° 0 mm 3 m/S 747 mmHg 92%
    05:00 +19°C° 0 mm 3 m/S 747 mmHg 91%
    06:00 +21°C° 0 mm 3 m/S 747 mmHg 85%
    07:00 +22°C° 0 mm 4 m/S 747 mmHg 79%
    08:00 +25°C° 0 mm 4 m/S 747 mmHg 74%
    09:00 +26°C° 0 mm 4 m/S 747 mmHg 67%
    10:00 +28°C° 0 mm 5 m/S 747 mmHg 60%
    11:00 +30°C° 0 mm 5 m/S 747 mmHg 53%
    12:00 +30°C° 0 mm 5 m/S 747 mmHg 51%
    13:00 +30°C° 0 mm 5 m/S 746 mmHg 50%
    14:00 +32°C° 0 mm 5 m/S 746 mmHg 48%
    15:00 +30°C° 0 mm 5 m/S 746 mmHg 52%
    16:00 +30°C° 0 mm 4 m/S 746 mmHg 55%
    17:00 +30°C° 0 mm 4 m/S 746 mmHg 59%
    18:00 +28°C° 0 mm 3 m/S 746 mmHg 66%
    19:00 +26°C° 0 mm 3 m/S 746 mmHg 73%
    20:00 +24°C° 0 mm 3 m/S 746 mmHg 81%
    21:00 +24°C° 0 mm 3 m/S 746 mmHg 85%
    22:00 +22°C° 0 mm 3 m/S 746 mmHg 88%
    23:00 +21°C° 0 mm 2 m/S 746 mmHg 92%

    11 Juni, Donnerstag

    Zeit Temperatur Niederschläge Wind Luftdruck Luftfeuchtigkeit
    00:00 +21°C° 0 mm 2 m/S 746 mmHg 93%
    01:00 +20°C° 0 mm 2 m/S 746 mmHg 94%
    02:00 +20°C° 0 mm 2 m/S 746 mmHg 95%
    03:00 +20°C° 0 mm 2 m/S 746 mmHg 95%
    04:00 +20°C° 0 mm 3 m/S 746 mmHg 94%
    05:00 +20°C° 0 mm 3 m/S 746 mmHg 93%
    06:00 +22°C° 0 mm 3 m/S 746 mmHg 88%
    07:00 +24°C° 0 mm 3 m/S 746 mmHg 83%
    08:00 +25°C° 0 mm 3 m/S 746 mmHg 78%
    09:00 +27°C° 0 mm 3 m/S 746 mmHg 71%
    10:00 +29°C° 0 mm 4 m/S 746 mmHg 65%
    11:00 +30°C° 0 mm 4 m/S 746 mmHg 58%
    12:00 +32°C° 0 mm 4 m/S 746 mmHg 55%
    13:00 +32°C° 0 mm 5 m/S 746 mmHg 51%
    14:00 +33°C° 0 mm 5 m/S 745 mmHg 48%
    15:00 +32°C° 0 mm 4 m/S 745 mmHg 51%
    16:00 +32°C° 0 mm 4 m/S 745 mmHg 54%
    17:00 +32°C° 0 mm 4 m/S 745 mmHg 57%
    18:00 +29°C° 0 mm 4 m/S 745 mmHg 65%
    19:00 +27°C° 0 mm 3 m/S 745 mmHg 72%
    20:00 +25°C° 0 mm 3 m/S 745 mmHg 79%
    21:00 +24°C° 0 mm 3 m/S 745 mmHg 84%
    22:00 +23°C° 0 mm 2 m/S 745 mmHg 88%
    23:00 +21°C° 0 mm 2 m/S 745 mmHg 92%

    12 Juni, Freitag

    Zeit Temperatur Niederschläge Wind Luftdruck Luftfeuchtigkeit
    00:00 +21°C° 0 mm 2 m/S 745 mmHg 93%
    01:00 +20°C° 0 mm 2 m/S 745 mmHg 94%
    02:00 +20°C° 0 mm 2 m/S 745 mmHg 96%
    03:00 +20°C° 0 mm 2 m/S 745 mmHg 96%
    04:00 +20°C° 0 mm 2 m/S 745 mmHg 96%
    05:00 +20°C° 0 mm 2 m/S 745 mmHg 96%
    06:00 +22°C° 0 mm 3 m/S 745 mmHg 90%
    07:00 +24°C° 0 mm 3 m/S 745 mmHg 84%
    08:00 +25°C° 0 mm 3 m/S 745 mmHg 78%
    09:00 +27°C° 0 mm 3 m/S 745 mmHg 71%
    10:00 +28°C° 0 mm 4 m/S 745 mmHg 64%
    11:00 +30°C° 0 mm 4 m/S 744 mmHg 58%
    12:00 +30°C° 0 mm 4 m/S 744 mmHg 55%
    13:00 +32°C° 0 mm 4 m/S 744 mmHg 53%
    14:00 +33°C° 0 mm 4 m/S 744 mmHg 50%
    15:00 +33°C° 0 mm 4 m/S 744 mmHg 53%
    16:00 +32°C° 0 mm 4 m/S 744 mmHg 55%
    17:00 +32°C° 0 mm 4 m/S 744 mmHg 57%
    18:00 +29°C° 0 mm 3 m/S 744 mmHg 65%
    19:00 +27°C° 0 mm 3 m/S 744 mmHg 73%
    20:00 +25°C° 0 mm 3 m/S 744 mmHg 81%
    21:00 +25°C° 0 mm 3 m/S 744 mmHg 83%
    22:00 +24°C° 0 mm 3 m/S 744 mmHg 86%
    23:00 +22°C° 0 mm 3 m/S 745 mmHg 88%
    Mehr zeigen